AI4QX-5 Weather Reports


time (UTC)temp
C
wind
direction
speed
KPH
gust
KPH
rain 1hr
cm
rain 24hr
cm
rain mn
cm
humidity
%
barometer
mb
20260507161000 28 0 0.0 0.0 0.00 0.00 0.00 47 1014.1
20260507160005 28 0 0.0 0.0 0.00 0.00 0.00 46 1014.4
20260507155000 28 0 0.0 0.0 0.00 0.00 0.00 47 1014.5
20260507154000 28 0 0.0 0.0 0.00 0.00 0.00 48 1014.5
20260507153000 28 0 0.0 0.0 0.00 0.00 0.00 48 1014.7
20260507152000 27 0 0.0 0.0 0.00 0.00 0.00 48 1014.6
20260507151000 27 0 0.0 0.0 0.00 0.00 0.00 48 1014.7
20260507150000 27 0 0.0 0.0 0.00 0.00 0.00 49 1014.9
20260507145000 27 0 0.0 0.0 0.00 0.00 0.00 49 1014.8
20260507144000 26 0 0.0 0.0 0.00 0.00 0.00 48 1014.9
20260507143000 26 0 0.0 0.0 0.00 0.00 0.00 48 1014.9
20260507142000 26 0 0.0 0.0 0.00 0.00 0.00 50 1014.9
20260507141000 26 0 0.0 0.0 0.00 0.00 0.00 48 1015.0
20260507140000 26 0 0.0 0.0 0.00 0.00 0.00 48 1015.1
20260507135000 25 0 0.0 0.0 0.00 0.00 0.00 48 1015.1
20260507134000 25 0 0.0 0.0 0.00 0.00 0.00 48 1015.0
20260507133000 25 0 0.0 0.0 0.00 0.00 0.00 48 1015.0
20260507132000 25 0 0.0 0.0 0.00 0.00 0.00 48 1015.0
20260507131000 25 0 0.0 0.0 0.00 0.00 0.00 49 1015.1
20260507130000 24 0 0.0 0.0 0.00 0.00 0.00 49 1015.1
20260507125000 24 0 0.0 0.0 0.00 0.00 0.00 49 1015.2
20260507124000 24 0 0.0 0.0 0.00 0.00 0.00 49 1015.2
20260507123000 24 0 0.0 0.0 0.00 0.00 0.00 48 1015.3
20260507122000 24 0 0.0 0.0 0.00 0.00 0.00 49 1015.2
20260507121000 24 0 0.0 0.0 0.00 0.00 0.00 49 1015.2
20260507120000 24 0 0.0 0.0 0.00 0.00 0.00 50 1015.2
20260507115000 24 0 0.0 0.0 0.00 0.00 0.00 50 1015.2
20260507114000 24 0 0.0 0.0 0.00 0.00 0.00 50 1015.2
20260507113000 24 0 0.0 0.0 0.00 0.00 0.00 50 1015.0
20260507112000 24 0 0.0 0.0 0.00 0.00 0.00 50 1014.9
20260507111000 24 0 0.0 0.0 0.00 0.00 0.00 49 1014.9
20260507110000 24 0 0.0 0.0 0.00 0.00 0.00 49 1014.7
20260507105000 24 0 0.0 0.0 0.00 0.00 0.00 49 1014.7
20260507104000 24 0 0.0 0.0 0.00 0.00 0.00 49 1014.6
20260507103000 24 0 0.0 0.0 0.00 0.00 0.00 49 1014.5
20260507102000 24 0 0.0 0.0 0.00 0.00 0.00 49 1014.4
20260507101000 24 0 0.0 0.0 0.00 0.00 0.00 49 1014.0
20260507100005 24 0 0.0 0.0 0.00 0.00 0.00 48 1013.8
20260507095000 24 0 0.0 0.0 0.00 0.00 0.00 48 1013.8
20260507094000 24 0 0.0 0.0 0.00 0.00 0.00 47 1013.7
20260507093000 24 0 0.0 0.0 0.00 0.00 0.00 47 1013.8
20260507092000 24 0 0.0 0.0 0.00 0.00 0.00 47 1013.6
20260507091000 24 0 0.0 0.0 0.00 0.00 0.00 47 1013.7
20260507090000 24 0 0.0 0.0 0.00 0.00 0.00 46 1013.6
20260507085000 24 0 0.0 0.0 0.00 0.00 0.00 47 1013.5
20260507084000 24 0 0.0 0.0 0.00 0.00 0.00 46 1013.4
20260507083000 24 0 0.0 0.0 0.00 0.00 0.00 46 1013.3
20260507082000 24 0 0.0 0.0 0.00 0.00 0.00 46 1013.3
20260507081000 25 0 0.0 0.0 0.00 0.00 0.00 46 1013.3
20260507080000 25 0 0.0 0.0 0.00 0.00 0.00 46 1013.4
20260507075000 25 0 0.0 0.0 0.00 0.00 0.00 46 1013.4
20260507074000 25 0 0.0 0.0 0.00 0.00 0.00 45 1013.4
20260507073001 25 0 0.0 0.0 0.00 0.00 0.00 45 1013.5
20260507072000 25 0 0.0 0.0 0.00 0.00 0.00 45 1013.5
20260507071000 25 0 0.0 0.0 0.00 0.00 0.00 44 1013.7
20260507070000 25 0 0.0 0.0 0.00 0.00 0.00 44 1013.9
20260507065000 25 0 0.0 0.0 0.00 0.00 0.00 44 1013.9
20260507064000 25 0 0.0 0.0 0.00 0.00 0.00 44 1014.0
20260507063000 25 0 0.0 0.0 0.00 0.00 0.00 43 1014.3
20260507062000 25 0 0.0 0.0 0.00 0.00 0.00 43 1014.4
20260507061000 25 0 0.0 0.0 0.00 0.00 0.00 43 1014.4
20260507060000 25 0 0.0 0.0 0.00 0.00 0.00 43 1014.3
20260507055000 25 0 0.0 0.0 0.00 0.00 0.00 43 1014.4
20260507054000 25 0 0.0 0.0 0.00 0.00 0.00 43 1014.5
20260507053000 25 0 0.0 0.0 0.00 0.00 0.00 42 1014.5
20260507052000 25 0 0.0 0.0 0.00 0.00 0.00 42 1014.6
20260507051000 25 0 0.0 0.0 0.00 0.00 0.00 41 1014.9
20260507050000 25 0 0.0 0.0 0.00 0.00 0.00 40 1015.2
20260507045000 25 0 0.0 0.0 0.00 0.00 0.00 40 1015.2
20260507044000 25 0 0.0 0.0 0.00 0.00 0.00 40 1014.7
20260507043000 25 0 0.0 0.0 0.00 0.00 0.00 40 1014.5
20260507042000 25 0 0.0 0.0 0.00 0.00 0.00 42 1014.3
20260507041000 25 0 0.0 0.0 0.00 0.00 0.00 42 1014.6
20260507040000 25 0 0.0 0.0 0.00 0.00 0.00 42 1014.6
20260507035000 25 0 0.0 0.0 0.00 0.00 0.00 43 1014.7
20260507034000 25 0 0.0 0.0 0.00 0.00 0.00 43 1014.6
20260507033000 24 0 0.0 0.0 0.00 0.00 0.00 44 1014.7
20260507032000 25 0 0.0 0.0 0.00 0.00 0.00 41 1014.7
20260507031000 24 0 0.0 0.0 0.00 0.00 0.00 40 1014.5
20260507030000 25 0 0.0 0.0 0.00 0.00 0.00 41 1014.6
20260507025000 24 0 0.0 0.0 0.00 0.00 0.00 40 1014.6
20260507024000 25 0 0.0 0.0 0.00 0.00 0.00 40 1014.8
20260507023000 24 0 0.0 0.0 0.00 0.00 0.00 39 1014.8
20260507022000 25 0 0.0 0.0 0.00 0.00 0.00 40 1014.8
20260507021000 25 0 0.0 0.0 0.00 0.00 0.00 40 1014.8
20260507020000 24 0 0.0 0.0 0.00 0.00 0.00 41 1014.9
20260507015000 25 0 0.0 0.0 0.00 0.00 0.00 40 1014.8
20260507014000 24 0 0.0 0.0 0.00 0.00 0.00 40 1014.8
20260507013000 25 0 0.0 0.0 0.00 0.00 0.00 41 1014.9
20260507012000 24 0 0.0 0.0 0.00 0.00 0.00 38 1014.8
20260507011000 25 0 0.0 0.0 0.00 0.00 0.00 40 1014.8
20260507010000 24 0 0.0 0.0 0.00 0.00 0.00 39 1014.6
20260507005000 25 0 0.0 0.0 0.00 0.00 0.00 40 1014.6
20260507004000 24 0 0.0 0.0 0.00 0.00 0.00 39 1014.4
20260507003000 24 0 0.0 0.0 0.00 0.00 0.00 41 1014.4
20260507002000 25 0 0.0 0.0 0.00 0.00 0.00 39 1014.3
20260507001000 24 0 0.0 0.0 0.00 0.00 0.00 41 1014.2
20260507000000 25 0 0.0 0.0 0.00 0.00 0.00 38 1014.1
20260506235000 25 0 0.0 0.0 0.00 0.00 0.00 39 1014.2
20260506234000 24 0 0.0 0.0 0.00 0.00 0.00 36 1014.3
20260506233000 25 0 0.0 0.0 0.00 0.00 0.00 36 1014.3
20260506232000 25 0 0.0 0.0 0.00 0.00 0.00 36 1014.4
20260506231000 25 0 0.0 0.0 0.00 0.00 0.00 36 1014.3
20260506230000 25 0 0.0 0.0 0.00 0.00 0.00 36 1014.4
20260506225000 25 0 0.0 0.0 0.00 0.00 0.00 36 1014.3
20260506224000 25 0 0.0 0.0 0.00 0.00 0.00 36 1014.4
20260506223000 26 0 0.0 0.0 0.00 0.00 0.00 37 1014.2
20260506222000 26 0 0.0 0.0 0.00 0.00 0.00 37 1014.3
20260506221000 26 0 0.0 0.0 0.00 0.00 0.00 38 1014.4
20260506220000 26 0 0.0 0.0 0.00 0.00 0.00 38 1014.4
20260506215000 26 0 0.0 0.0 0.00 0.00 0.00 38 1014.3
20260506214000 26 0 0.0 0.0 0.00 0.00 0.00 37 1014.3
20260506213000 26 0 0.0 0.0 0.00 0.00 0.00 37 1014.4
20260506212000 27 0 0.0 0.0 0.00 0.00 0.00 36 1014.4
20260506211000 27 0 0.0 0.0 0.00 0.00 0.00 36 1014.3
20260506210000 27 0 0.0 0.0 0.00 0.00 0.00 35 1014.3
20260506205000 27 0 0.0 0.0 0.00 0.00 0.00 35 1014.4
20260506204000 27 0 0.0 0.0 0.00 0.00 0.00 35 1014.4
20260506203000 27 0 0.0 0.0 0.00 0.00 0.00 35 1014.3
20260506202000 27 0 0.0 0.0 0.00 0.00 0.00 35 1014.3
20260506201000 27 0 0.0 0.0 0.00 0.00 0.00 35 1014.4
20260506200000 27 0 0.0 0.0 0.00 0.00 0.00 36 1014.3
20260506195000 27 0 0.0 0.0 0.00 0.00 0.00 36 1014.5
20260506194000 27 0 0.0 0.0 0.00 0.00 0.00 37 1014.5
20260506193000 27 0 0.0 0.0 0.00 0.00 0.00 37 1014.5
20260506192000 27 0 0.0 0.0 0.00 0.00 0.00 37 1014.7
20260506191000 27 0 0.0 0.0 0.00 0.00 0.00 37 1014.8
20260506190000 27 0 0.0 0.0 0.00 0.00 0.00 37 1014.9
20260506185000 27 0 0.0 0.0 0.00 0.00 0.00 37 1014.9
20260506184000 27 0 0.0 0.0 0.00 0.00 0.00 37 1015.0
20260506183000 28 0 0.0 0.0 0.00 0.00 0.00 37 1015.0
20260506182000 28 0 0.0 0.0 0.00 0.00 0.00 37 1015.2
20260506181000 29 0 0.0 0.0 0.00 0.00 0.00 38 1015.3
20260506180000 29 0 0.0 0.0 0.00 0.00 0.00 41 1015.3
20260506175000 29 0 0.0 0.0 0.00 0.00 0.00 39 1015.3
20260506174000 29 0 0.0 0.0 0.00 0.00 0.00 42 1015.4
20260506173000 29 0 0.0 0.0 0.00 0.00 0.00 39 1015.4
20260506172000 29 0 0.0 0.0 0.00 0.00 0.00 42 1015.5
20260506171000 28 0 0.0 0.0 0.00 0.00 0.00 40 1015.4
20260506170000 29 0 0.0 0.0 0.00 0.00 0.00 45 1015.6
20260506165000 28 0 0.0 0.0 0.00 0.00 0.00 44 1015.6
20260506164000 29 0 0.0 0.0 0.00 0.00 0.00 44 1015.6
20260506163000 28 0 0.0 0.0 0.00 0.00 0.00 45 1015.7
20260506162000 28 0 0.0 0.0 0.00 0.00 0.00 44 1015.6